Hourly Data Report for October 13, 2014

All times are specified in Local Standard Time (LST). Add 1 hour to adjust for Daylight Saving Time where and when it is observed.

KAMLOOPS A
BRITISH COLUMBIA

50°42'09.000" N
120°26'55.000" W
345.30 m
1163781
71887
YKA

Download Data

Hourly Data (October 2014)
Hourly Data Report for October 13, 2014
Temp Definition
°C
Dew Point Temp Definition
°C
Rel Hum Definition
%
Wind Dir Definition
10's deg

Wind Spd Definition
km/h
Visibility Definition
km
Stn Press Definition
kPa
Hmdx Definition


Wind Chill Definition


Weather Definition


TIME
00:00 Legend Double Dagger 10.5 7.2 80 9 19 32.2 97.58     LegendNANA
01:00 Legend Double Dagger 10.4 6.9 79 8 21 32.2 97.57     Cloudy
02:00 Legend Double Dagger 9.7 6.8 82 9 29 32.2 97.50     LegendNANA
03:00 Legend Double Dagger 9.2 7.0 86 7 19 32.2 97.44     LegendNANA
04:00 Legend Double Dagger 9.3 7.1 86 8 17 32.2 97.39     Mostly Cloudy
05:00 Legend Double Dagger 9.4 7.4 87 9 17 32.2 97.36     LegendNANA
06:00 Legend Double Dagger 9.8 7.1 83 12 14 64.4 97.33     LegendNANA
07:00 Legend Double Dagger 9.3 6.8 84 9 14 64.4 97.28     Mostly Cloudy
08:00 Legend Double Dagger 9.4 6.9 84 10 24 64.4 97.22     LegendNANA
09:00 Legend Double Dagger 9.8 7.1 83 11 17 48.3 97.16     Rain
10:00 Legend Double Dagger 10.6 7.1 79 9 21 64.4 96.98     Cloudy
11:00 Legend Double Dagger 11.9 7.8 76 11 10 64.4 96.88     LegendNANA
12:00 Legend Double Dagger 14.4 6.3 58 9 20 64.4 96.75     LegendNANA
13:00 Legend Double Dagger 16.7 6.3 50 9 24 64.4 96.54     Mostly Cloudy
14:00 Legend Double Dagger 17.0 5.7 47 9 34 64.4 96.34     LegendNANA
15:00 Legend Double Dagger 18.2 5.5 43 10 27 64.4 96.19     LegendNANA
16:00 Legend Double Dagger 17.5 4.6 42 11 26 64.4 96.13     Mostly Cloudy
17:00 Legend Double Dagger 17.1 4.5 43 10 30 64.4 96.12     LegendNANA
18:00 Legend Double Dagger 16.2 5.0 47 9 19 64.4 96.11     LegendNANA
19:00 Legend Double Dagger 15.9 5.3 49 10 24 64.4 96.06     Cloudy
20:00 Legend Double Dagger 14.8 6.9 59 11 6 64.4 96.14     Rain
21:00 Legend Double Dagger 14.5 5.9 56 34 7 64.4 96.12     LegendNANA
22:00 Legend Double Dagger 14.4 6.3 58 9 14 64.4 96.09     Cloudy
23:00 Legend Double Dagger 13.4 6.8 64 11 11 64.4 95.98     LegendNANA

Notes on Data Quality.

Legend

  • E = Estimated
  • M = Missing
  • NA = Not Available
  • ‡ = Partner data that is not subject to review by the National Climate Archives
Date modified: